Simultaneous Nadir Overpasses (SNOs) Predictions

Prediction of SNOs between GOES-16 and NOAA-20 Satellite Orbit:

Table of predicted SNOs for the next 14.0 days since TLE Epoch: 7/26/2019
Index Date Time (GOES-16) GOES-16 Lat,Lon NOAA-20 Lat,Lon Distance(km) Time Diff (sec)
1 07/27/2019 06:13:16 -0.03, -75.20 -0.78, -71.92 374.13 80
2 07/28/2019 18:32:31 0.04, -75.22 -0.42, -77.21 227.98 80
3 07/29/2019 18:16:27 0.04, -75.23 0.64, -72.69 289.77 80
4 07/31/2019 06:35:33 -0.05, -75.24 0.57, -77.95 309.25 80
5 08/01/2019 06:19:28 -0.05, -75.25 -0.43, -73.42 208.73 80
6 08/02/2019 18:38:44 0.05, -75.28 -0.70, -78.73 392.70 80
7 08/03/2019 18:22:38 0.05, -75.30 0.30, -74.19 125.76 80
8 08/05/2019 06:44:26 -0.06, -75.32 0.85, -79.47 471.89 80
9 08/06/2019 06:25:40 -0.05, -75.34 -0.15, -74.93 47.00 80
10 08/08/2019 18:26:11 0.06, -75.40 0.02, -75.71 34.10 80
11 08/09/2019 18:10:06 0.06, -75.43 1.02, -71.17 485.30 80




NCC Satellite Simultaneous Nadir Overpasses (SNOs) Prediction Service
